Weather History for Belize / Phillip Goldston Intl. Airport, Belize

Change the Weather History Date:

Wednesday, March 5, 2014

  Actual Average Record
Temperature  
Mean Temperature 80 °F -  
Max Temperature 86 °F 85 °F - ()
Min Temperature 74 °F 71 °F - ()
Cooling Degree Days 15    
Growing Degree Days 30 (Base 50)    
Moisture  
Dew Point 74 °F    
Average Humidity 77    
Maximum Humidity 94    
Minimum Humidity 61    
Precipitation  
Precipitation 0.00 in 0.08 in - ()
Sea Level Pressure  
Sea Level Pressure 29.89 in    
Wind  
Wind Speed 5 mph ()    
Max Wind Speed 10 mph    
Max Gust Speed -    
Visibility 8.7 miles    
Events      
T = Trace of Precipitation, MM = Missing Value Source: Averaged Metar Reports

Daily Weather History Graph

Daily Weather History Graph

Search for Another Location

Airport:

Trip Planner

Search our weather history database for the weather conditions in past years. The results will help you decide how hot, cold, wet, or windy it might be!

Date:

Astronomy

Mar. 05, 2014 Rise Set
Actual Time 6:08 AM CST 6:00 PM CST
Civil Twilight 5:47 AM CST 6:22 PM CST
Nautical Twilight 5:21 AM CST 6:47 PM CST
Astronomical Twilight 4:56 AM CST 7:12 PM CST
Moon 9:17 AM CST (3/5) 10:22 PM CST (3/5)
Length of Visible Light 12h 35m
Length of Day
11h 52m
Waxing Crescent, 23% of the Moon is Illuminated
Mar 5
Waxing Crescent
Mar 8
First Quarter
Mar 16
Full
Mar 23
Last Quarter
Mar 30
New

Hourly Weather History & Observations

Time (CST) Temp. Heat Index Dew Point Humidity Pressure Visibility Wind Dir Wind Speed Gust Speed Precip Events Conditions
12:00 AM 76 °F - 72 °F 85% 29.93 in 12 mi ESE 3.5 mph - -   Scattered Clouds
3:00 AM 76 °F - 73 °F 86% 29.89 in 12 mi East 3.5 mph - -   Scattered Clouds
5:00 AM 75.2 °F - 73.4 °F 94% 29.88 in 6.2 mi ESE 3.5 mph - N/A   Partly Cloudy
6:00 AM 74 °F - 72 °F 94% 29.90 in 12 mi ESE 2.3 mph - -   Scattered Clouds
6:00 AM 75.2 °F - 73.4 °F 94% 29.90 in 6.2 mi ESE 2.3 mph - N/A   Scattered Clouds
7:00 AM 77.0 °F - 73.4 °F 89% 29.91 in 6.2 mi ESE 2.3 mph - N/A   Mostly Cloudy
8:00 AM 82.4 °F 89.5 °F 75.2 °F 79% 29.93 in 6.2 mi ESE 5.8 mph - N/A   Mostly Cloudy
9:00 AM 83 °F - 74 °F 68% 29.95 in 12 mi SE 6.9 mph - -   Mostly Cloudy
9:00 AM 82.4 °F 88.2 °F 73.4 °F 74% 29.94 in 6.2 mi SE 6.9 mph - N/A   Mostly Cloudy
10:00 AM 84.2 °F 90.9 °F 73.4 °F 70% 29.95 in 6.2 mi SE 6.9 mph - N/A   Mostly Cloudy
11:00 AM 84.2 °F 90.9 °F 73.4 °F 70% 29.93 in 6.2 mi East 8.1 mph - N/A   Mostly Cloudy
12:00 PM 84 °F - 74 °F 65% 29.92 in 14 mi ESE 6.9 mph - -   Partly Cloudy
12:00 PM 84.2 °F 90.9 °F 73.4 °F 70% 29.91 in 6.2 mi ESE 6.9 mph - N/A   Scattered Clouds
1:00 PM 86.0 °F 93.4 °F 73.4 °F 66% 29.87 in 6.2 mi East 8.1 mph - N/A   Scattered Clouds
2:00 PM 84.2 °F 90.9 °F 73.4 °F 70% 29.85 in 6.2 mi ENE 8.1 mph - N/A   Partly Cloudy
3:00 PM 86 °F - 74 °F 61% 29.84 in 14 mi ENE 10.4 mph - -   Scattered Clouds
3:00 PM 84.2 °F 90.9 °F 73.4 °F 70% 29.82 in 6.2 mi East 10.4 mph - N/A   Partly Cloudy
4:00 PM 84.2 °F 90.9 °F 73.4 °F 70% 29.82 in 6.2 mi East 10.4 mph - N/A   Partly Cloudy
5:00 PM 84.2 °F 90.9 °F 73.4 °F 70% 29.82 in 6.2 mi East 8.1 mph - N/A   Partly Cloudy
6:00 PM 82 °F - 74 °F 70% 29.85 in 14 mi East 6.9 mph - -  
6:00 PM 82.4 °F 88.2 °F 73.4 °F 74% 29.83 in - North - - N/A   Partly Cloudy
7:00 PM 78.8 °F - 75.2 °F 89% 29.86 in 6.2 mi East 4.6 mph - N/A   Partly Cloudy
9:00 PM 78 °F - 75 °F 89% 29.90 in 14 mi East 4.6 mph - -